[[{"header":{"parameterUnit":"m.s-1","parameterCategory":1,"la1":30.2991,"la2":30.254,"lo1":-89.0895,"lo2":-89.0444,"dy":0.0017,"dx":0.0017,"nx":28,"ny":28,"refTime":"2023-08-21T21:00:00:Z","depth":0,"parameterNumber":2,"parameterNumberName":"U-component_of_WINDS"},"data":[0,0,0,0,0,0,0,0,0,0,0,0,0,0,0,0,0,0,0,0,0,0,0,0,0,0,0,0,0,0,0,0,0,0,0,0,0,0,0,0,0,0,0,0,0,0,0,0,0,0,0,0,0,0,0,0,0,0,2.0333,2.0335,0,2.046,2.0462,2.0463,2.0505,2.0505,2.0504,2.0504,2.0634,2.0637,2.0641,0,0,0,0,0,0,0,0,0,0,0,0,0,2.0125,2.0129,2.0333,2.0335,2.0336,2.046,2.0462,2.0464,2.0505,2.0505,2.0504,2.0503,2.0632,2.0637,2.0642,0,0,0,0,0,0,0,0,0,0,0,0,0,2.023,2.013,2.0333,2.0372,2.0377,2.046,2.0462,2.0464,2.0506,2.0505,2.0504,2.0503,2.0631,2.0636,2.0642,2.0695,0,0,2.066,2.0663,0,0,0,0,0,0,0,0,2.0224,2.0238,2.0365,2.037,2.0375,2.0466,2.0436,2.0542,2.0506,2.0457,2.0504,2.0503,2.0578,2.0589,2.0614,2.0701,2.0707,2.0661,2.0665,2.0667,2.0669,0,0,0,0,0,0,0,2.0217,2.0232,2.0384,2.0367,2.0373,2.0383,2.0397,2.0456,2.0521,2.0461,2.0464,2.0479,2.0581,2.0608,2.0618,2.0709,2.0661,2.0666,2.067,2.0672,2.0845,2.0846,0,0,0,0,0,0,2.0203,2.0226,2.038,2.0387,2.0296,2.0387,2.0403,2.0438,2.052,2.0532,2.0479,2.048,2.0599,2.0611,2.0622,2.0689,2.0667,2.0673,2.0676,2.0844,2.0845,2.0846,0,0,0,0,0,0,2.0198,2.0216,2.0374,2.0308,2.0329,2.0392,2.043,2.0441,2.0468,2.0534,2.0546,2.0496,2.0599,2.0614,2.0677,2.0694,2.0675,2.0681,2.0843,2.0844,2.0846,2.0823,0,0,0,0,0,0,2.0192,2.0214,2.0235,2.0308,2.0332,2.0427,2.0432,2.0444,2.0478,2.0481,2.0552,2.0563,2.0599,2.0668,2.0683,2.0702,2.0685,2.0841,2.0843,2.0845,2.0822,2.0824,2.0825,0,0,0,0,0,2.0185,2.0224,2.0236,2.0255,2.036,2.0428,2.0441,2.0482,2.048,2.0501,2.0543,2.0561,2.069,2.0674,2.0691,2.0712,2.084,2.0843,2.0845,2.0822,2.0823,2.0824,0,0,0,0,0,0,2.0152,2.0234,2.0249,2.0313,2.0363,2.0435,2.0463,2.0482,2.0534,2.0534,2.0582,2.0598,2.0656,2.0691,2.0671,2.0767,2.0766,2.0772,2.0743,2.0744,2.0745,2.0735,2.069,0,0,0,0,0,2.0152,2.0201,2.027,2.032,2.0345,2.0399,2.043,2.0457,2.0511,2.0532,2.0579,2.063,2.0682,2.0715,2.0767,2.0828,2.0844,2.0851,2.0852,2.0853,2.0857,2.0891,2.0894,2.0854,2.0854,2.0854,0,0,2.0153,2.0204,2.0232,2.0315,2.0357,2.0405,2.0417,2.0468,2.0504,2.054,2.0602,2.0638,2.0698,2.076,2.0789,2.079,2.0872,2.0856,2.0855,2.086,2.0893,2.0897,2.09,2.0855,2.0855,2.0855,0,0,2.018,2.0224,2.027,2.0311,2.0375,2.0411,2.0422,2.0491,2.0516,2.0579,2.0606,2.065,2.0739,2.078,2.0813,2.0854,2.0872,2.087,2.0875,2.0907,2.091,2.0913,2.0927,2.0932,2.0874,2.0874,2.0874,0,2.0173,2.0248,2.0291,2.0341,2.0376,2.041,2.0456,2.0495,2.0571,2.0595,2.0595,2.0706,2.075,2.0821,2.0831,2.0857,2.087,2.0862,2.0907,2.091,2.0914,2.0927,2.0932,2.0873,2.0873,2.0873,2.0873,0,2.0235,2.0287,2.0316,2.0389,2.0428,2.0476,2.0525,2.0559,2.0583,2.0618,2.0681,2.0734,2.0797,2.0816,2.0839,2.089,2.0889,2.0897,2.0897,2.0916,2.0929,2.0935,2.0872,2.0872,2.0873,2.0873,0,0,2.0245,2.0341,2.0351,2.0384,2.0456,2.0497,2.0546,2.0607,2.0634,2.0686,2.0728,2.0802,2.081,2.0847,2.0875,2.0903,2.0932,2.0909,2.0911,2.091,2.099,2.0982,2.0988,2.0944,2.0946,2.0946,2.0984,0,2.0279,2.0369,2.0409,2.048,2.0527,2.056,2.0603,2.0651,2.0686,2.0731,2.077,2.0821,2.0828,2.0851,2.088,2.0922,2.0948,2.092,2.0983,2.0984,2.0966,2.0995,2.0988,2.1021,2.099,2.0991,2.0992,0,2.0332,2.0384,2.0459,2.0525,2.0547,2.0584,2.0643,2.0686,2.0741,2.0765,2.0806,2.0833,2.0885,2.0881,2.0953,2.0933,2.0961,2.0985,2.0987,2.0994,2.0989,2.1001,2.1033,2.1037,2.1001,2.1,2.0999,0,2.0329,2.0418,2.0475,2.0502,2.0581,2.0606,2.064,2.0695,2.0729,2.078,2.0802,2.0859,2.089,2.0933,2.0974,2.0968,2.1042,2.1042,2.1062,2.1061,2.1075,2.1074,2.111,2.1095,2.1095,2.1095,2.1095,0,2.0364,2.0408,2.0475,2.0509,2.056,2.0605,2.0654,2.069,2.0739,2.078,2.0813,2.0851,2.0904,2.0949,2.0982,2.1036,2.105,2.107,2.1078,2.1066,2.1064,2.1085,2.1083,2.1096,2.1096,2.1096,2.1095,0,2.0369,2.0415,2.0479,2.0548,2.0567,2.0601,2.066,2.0694,2.0731,2.0783,2.0798,2.0855,2.0909,2.0955,2.1027,2.1049,2.1105,2.1115,2.1086,2.109,2.1107,2.1104,2.1158,2.1167,2.1146,2.1146,2.1146,0,2.0387,2.0423,2.0495,2.0526,2.0559,2.0608,2.0643,2.0689,2.0723,2.0789,2.0815,2.0872,2.092,2.1005,2.1053,2.1108,2.1119,2.1134,2.1127,2.1114,2.1118,2.1115,2.1118,2.1134,2.1134,2.1134,2.1134,0,2.0414,2.0435,2.0485,2.0541,2.0582,2.0629,2.0677,2.07,2.0754,2.0791,2.0847,2.0885,2.0958,2.1013,2.1073,2.1108,2.1129,2.1135,2.1143,2.1131,2.1112,2.1122,2.1086,2.1134,2.1134,2.1134,2.1134,2.1134,2.0426,2.0459,2.0515,2.0568,2.0609,2.0653,2.0688,2.0729,2.0777,2.084,2.0864,2.0921,2.0975,2.1058,2.1093,2.1138,2.1141,2.1151,2.1154,2.1156,2.1154,2.1106,2.1149,2.1149,2.1149,2.1149,2.1149,0,2.0454,2.0492,2.0541,2.0606,2.0648,2.0665,2.0719,2.0752,2.0802,2.0851,2.0898,2.0962,2.1016,2.1067,2.1124,2.115,2.1161,2.1163,2.1161,2.1169,2.1148,2.1136,2.1153,2.1153,2.1153,2.1153,2.1153,2.1153,2.0473,2.0529,2.0557,2.0632,2.067,2.0726,2.0755,2.0796,2.0835,2.0905,2.095,2.0983,2.1033,2.1094,2.1144,2.1158,2.1177,2.1176,2.1192,2.1171,2.117,2.1169,2.1158,2.118,2.118,2.1209,2.1209,2.1209]},{"header":{"parameterUnit":"m.s-1","parameterCategory":1,"la1":30.2991,"la2":30.254,"lo1":-89.0895,"lo2":-89.0444,"dy":0.0017,"dx":0.0017,"nx":28,"ny":28,"refTime":"2023-08-21T21:00:00:Z","depth":0,"parameterNumber":3,"parameterNumberName":"V-component_of_WINDS"},"data":[0,0,0,0,0,0,0,0,0,0,0,0,0,0,0,0,0,0,0,0,0,0,0,0,0,0,0,0,0,0,0,0,0,0,0,0,0,0,0,0,0,0,0,0,0,0,0,0,0,0,0,0,0,0,0,0,0,0,2.7964,2.7964,0,2.7883,2.7882,2.7881,2.7845,2.7846,2.7846,2.7846,2.7755,2.7753,2.775,0,0,0,0,0,0,0,0,0,0,0,0,0,2.8083,2.8081,2.7964,2.7963,2.7962,2.7883,2.7882,2.7881,2.7845,2.7846,2.7846,2.7846,2.7756,2.7753,2.775,0,0,0,0,0,0,0,0,0,0,0,0,0,2.8019,2.808,2.7965,2.7935,2.7932,2.7883,2.7882,2.7881,2.7845,2.7846,2.7846,2.7846,2.7757,2.7754,2.775,2.7722,0,0,2.7738,2.7736,0,0,0,0,0,0,0,0,2.8023,2.8015,2.7941,2.7937,2.7933,2.7875,2.7891,2.7827,2.7845,2.7878,2.7846,2.7846,2.7794,2.7788,2.7772,2.7718,2.7714,2.7738,2.7735,2.7734,2.7733,0,0,0,0,0,0,0,2.8028,2.8018,2.7932,2.794,2.7935,2.7924,2.7915,2.7878,2.7836,2.7875,2.7872,2.7864,2.7792,2.7775,2.7769,2.7713,2.7738,2.7735,2.7732,2.7731,2.7632,2.7632,0,0,0,0,0,0,2.8038,2.8022,2.7935,2.793,2.798,2.7922,2.7912,2.7893,2.7836,2.7828,2.7864,2.7862,2.7782,2.7774,2.7766,2.773,2.7734,2.773,2.7728,2.7633,2.7632,2.7632,0,0,0,0,0,0,2.804,2.803,2.7938,2.7975,2.7963,2.792,2.7899,2.7891,2.7875,2.7828,2.7819,2.7854,2.7782,2.7771,2.7734,2.7726,2.7729,2.7725,2.7633,2.7632,2.7632,2.7658,0,0,0,0,0,0,2.8044,2.8031,2.8022,2.7975,2.7961,2.7909,2.7898,2.789,2.7869,2.7866,2.7817,2.7809,2.7781,2.774,2.773,2.7721,2.7722,2.7633,2.7633,2.7632,2.7658,2.7659,2.7659,0,0,0,0,0,2.8048,2.8031,2.8022,2.8011,2.7948,2.7909,2.79,2.7871,2.7868,2.7858,2.7828,2.781,2.7729,2.7736,2.7725,2.7715,2.7634,2.7633,2.7632,2.7657,2.7658,2.7659,0,0,0,0,0,0,2.8074,2.8024,2.8013,2.798,2.795,2.7903,2.7888,2.7873,2.784,2.7839,2.7802,2.7791,2.7756,2.7732,2.7741,2.7685,2.768,2.7677,2.7703,2.7703,2.7704,2.771,2.7719,0,0,0,0,0,2.8077,2.8051,2.8007,2.7983,2.7968,2.7931,2.7912,2.7893,2.7858,2.7844,2.7811,2.7777,2.7743,2.7722,2.7689,2.7654,2.7642,2.7642,2.7643,2.7643,2.7641,2.7621,2.762,2.7629,2.7629,2.7629,0,0,2.808,2.805,2.8035,2.7987,2.7961,2.7933,2.792,2.7891,2.787,2.7839,2.7803,2.7777,2.7736,2.77,2.7683,2.7678,2.7636,2.7643,2.7644,2.764,2.762,2.7619,2.7619,2.7629,2.7629,2.7629,0,0,2.8073,2.8048,2.8025,2.8,2.7961,2.7937,2.7932,2.7887,2.787,2.7834,2.7811,2.7784,2.7727,2.7699,2.7677,2.7661,2.7644,2.7651,2.7655,2.7636,2.7635,2.7634,2.7628,2.7627,2.7649,2.7649,2.7649,0,2.8082,2.8042,2.8014,2.7987,2.7967,2.7941,2.7916,2.7892,2.7844,2.7829,2.7826,2.7755,2.7725,2.7683,2.768,2.7663,2.7654,2.7656,2.7638,2.7637,2.7636,2.7629,2.7627,2.765,2.765,2.765,2.765,0,2.8054,2.8027,2.8012,2.797,2.7947,2.7921,2.7888,2.7869,2.7851,2.7827,2.779,2.7754,2.7713,2.7702,2.7683,2.7656,2.7655,2.7646,2.7639,2.7636,2.763,2.7627,2.7652,2.7651,2.7651,2.7651,0,0,2.806,2.8004,2.7999,2.798,2.7936,2.7913,2.7886,2.7849,2.7832,2.78,2.7776,2.7729,2.7721,2.7696,2.7674,2.7658,2.7648,2.765,2.7648,2.7651,2.7616,2.7623,2.7621,2.7637,2.7636,2.7635,2.7619,0,2.8046,2.7999,2.7975,2.7937,2.7911,2.7887,2.7863,2.7833,2.781,2.7782,2.7756,2.7724,2.7715,2.77,2.7683,2.7653,2.764,2.7654,2.7612,2.7611,2.7623,2.7618,2.7625,2.7611,2.7617,2.7616,2.7616,0,2.8024,2.7995,2.7957,2.7917,2.7905,2.7885,2.7849,2.7824,2.7789,2.7773,2.7747,2.7726,2.7695,2.7692,2.7648,2.7658,2.7639,2.7622,2.7621,2.7615,2.7613,2.7611,2.7606,2.7604,2.7612,2.7612,2.7612,0,2.8032,2.7983,2.7954,2.7938,2.7891,2.7877,2.7857,2.7822,2.7802,2.777,2.7756,2.772,2.77,2.7672,2.7642,2.7643,2.7601,2.7595,2.7586,2.7586,2.7577,2.7578,2.7569,2.7566,2.7566,2.7566,2.7566,0,2.8019,2.7996,2.7957,2.7939,2.7912,2.7883,2.7857,2.7834,2.7804,2.7779,2.7755,2.7733,2.7694,2.7666,2.7642,2.7609,2.76,2.7586,2.7579,2.7587,2.7589,2.7574,2.7574,2.7566,2.7566,2.7566,2.7566,0,2.8023,2.7996,2.7962,2.7922,2.7911,2.7893,2.7858,2.7838,2.7815,2.7784,2.7775,2.7738,2.7704,2.7671,2.7624,2.7608,2.7575,2.7567,2.7588,2.7585,2.7577,2.7578,2.7557,2.7552,2.7554,2.7554,2.7554,0,2.8016,2.7999,2.7957,2.7941,2.7922,2.7895,2.7875,2.7846,2.7825,2.7785,2.777,2.7735,2.7705,2.7652,2.7619,2.7583,2.7574,2.7569,2.7568,2.7577,2.7573,2.7575,2.7573,2.7569,2.757,2.757,2.757,0,2.8008,2.7996,2.7969,2.7938,2.7916,2.7889,2.7862,2.7849,2.7814,2.7792,2.7759,2.7736,2.769,2.7655,2.7616,2.7593,2.7575,2.7571,2.7567,2.7574,2.7587,2.758,2.759,2.7571,2.7571,2.7571,2.7571,2.7571,2.8005,2.7989,2.7958,2.7929,2.7906,2.7882,2.7862,2.7837,2.781,2.7772,2.7756,2.7722,2.7687,2.7634,2.7611,2.7582,2.7578,2.7572,2.757,2.7569,2.7571,2.7593,2.7575,2.7575,2.7575,2.7575,2.7575,0,2.7995,2.7975,2.7949,2.7913,2.789,2.7879,2.7848,2.7829,2.78,2.7771,2.7743,2.7705,2.7671,2.7637,2.7601,2.7585,2.7576,2.7576,2.7576,2.7571,2.7577,2.7584,2.7584,2.7584,2.7584,2.7584,2.7584,2.7584,2.7987,2.7959,2.7944,2.7903,2.7882,2.7851,2.7834,2.7811,2.7788,2.7747,2.772,2.7699,2.7667,2.7629,2.7597,2.7587,2.7575,2.7578,2.7566,2.7571,2.7571,2.757,2.7577,2.7575,2.7575,2.7563,2.7562,2.7562]}]]